This demonstration page uses our WeatherBlox Daily Observations layout. Learn more.

Left ArrowRight Arrow

Hourly Observations for March 17, 2022

Temp ( °F °C ) Dew Point ( °F °C ) Humidity (%) Winds ( mph kmh ) Pressure ( in mb ) Visibility ( mi km ) Precip ( " mm )
12:59 am 00:59 Cloudy 60 15.6 54 12.2 80 80 Calm 30.04 1017 10 16 0.00 0.00
1:59 am 01:59 Cloudy 63 17.2 54 12.2 73 73 SE 5 7 30.00 1016 10 16 0.00 0.00
2:59 am 02:59 Mostly Cloudy 59 15 53 11.7 81 81 Calm 29.97 1015 10 16 0.00 0.00
3:23 am 03:23 Cloudy 58 14.4 53 11.7 84 84 Calm 29.97 1015 10 16 0.00 0.00
3:59 am 03:59 Cloudy 58 14.4 53 11.7 84 84 E 6 9 29.94 1014 10 16 0.00 0.00
4:06 am 04:06 Cloudy 58 14.4 53 11.7 84 84 E 5 7 29.94 1014 10 16 0.00 0.00
4:59 am 04:59 Cloudy 56 13.3 52 11.1 87 87 NE 7 11 29.91 1013 10 16 0.00 0.00
5:46 am 05:46 Cloudy with Thunderstorms 56 13.3 51 10.6 84 84 E 7 11 29.91 1013 10 16 0.00 0.00
5:59 am 05:59 Cloudy 56 13.3 52 11.1 87 87 E 7 11 29.91 1013 9 14 0.00 0.00
6:11 am 06:11 Cloudy with Thunderstorms 56 13.3 52 11.1 87 87 E 7 11 29.91 1013 5 8 0.02 0.51
6:26 am 06:26 Cloudy with Thunderstorms 55 12.8 52 11.1 90 90 E 13 20 29.88 1012 3 4 0.09 2.29
6:34 am 06:34 Cloudy with Thunderstorms 55 12.8 52 11.1 90 90 ENE 9 15 29.88 1012 3 5 0.13 3.30
6:59 am 06:59 Mostly Cloudy with Light Rain 55 12.8 52 11.1 90 90 NE 5 7 29.88 1012 5 8 0.17 4.32
7:59 am 07:59 Cloudy with Light Rain 60 15.6 57 13.9 90 90 NE 6 9 29.87 1012 3 5 0.11 2.79
8:28 am 08:28 Cloudy with Rain 61 16.1 58 14.4 90 90 NNE 6 9 29.85 1011 2 3 0.06 1.52
8:36 am 08:36 Cloudy with Rain 61 16.1 58 14.4 90 90 NE 9 15 29.85 1011 1 2 0.13 3.30
8:40 am 08:40 Cloudy with Heavy Rain 61 16.1 58 14.4 90 90 ENE 10 17 29.85 1011 1 1 0.22 5.59
8:50 am 08:50 Cloudy with Heavy Rain 62 16.7 59 15 90 90 ENE 28 44 29.79 1009 1 1 0.59 14.99
8:59 am 08:59 Mostly Cloudy with Rain 64 17.8 61 16.1 90 90 E 25 41 29.80 1009 1 1 0.65 16.51
9:02 am 09:02 Mostly Cloudy with Light Rain 64 17.8 62 16.7 93 93 ENE 20 31 29.81 1009 1 2 0.01 0.25
9:05 am 09:05 Mostly Cloudy with Light Rain 64 17.8 62 16.7 93 93 ENE 18 30 29.82 1010 2 3 0.01 0.25
9:13 am 09:13 Mostly Cloudy 63 17.2 60 15.6 90 90 ENE 14 22 29.83 1010 8 13 0.01 0.25
9:59 am 09:59 Mostly Cloudy with Mist and Fog 61 16.1 59 15 93 93 NE 8 13 29.84 1011 5 8 0.01 0.25
10:40 am 10:40 Cloudy with Mist and Fog 61 16.1 59 15 93 93 NE 8 13 29.85 1011 3 4 0.00 0.00
10:47 am 10:47 Cloudy with Mist and Fog 61 16.1 59 15 93 93 ENE 7 11 29.84 1010 1 1 0.00 0.00
10:59 am 10:59 Cloudy with Mist and Fog 61 16.1 58 14.4 90 90 NE 3 6 29.84 1011 1 1 0.00 0.00
11:30 am 11:30 Cloudy 64 17.8 60 15.6 87 87 NE 5 7 29.83 1010 1 2 0.00 0.00
11:42 am 11:42 Cloudy 65 18.3 61 16.1 87 87 ENE 3 6 29.83 1010 10 16 0.00 0.00
11:59 am 11:59 Cloudy 67 19.4 62 16.7 84 84 Calm 29.82 1010 10 16 0.00 0.00
12:23 pm 12:23 Mostly Cloudy with Mist and Fog 61 16.1 57 13.9 87 87 NNW 10 17 29.83 1010 2 3 0.00 0.00
12:51 pm 12:51 Mostly Cloudy 64 17.8 59 15 84 84 NNE 6 9 29.82 1010 10 16 0.00 0.00
12:59 pm 12:59 Mostly Cloudy 64 17.8 58 14.4 81 81 NNE 7 11 29.81 1010 10 16 0.00 0.00
1:46 pm 13:46 Mostly Cloudy with Mist and Fog 58 14.4 55 12.8 90 90 NNE 16 26 29.80 1009 1 1 0.00 0.00
1:57 pm 13:57 Mostly Cloudy with Fog 57 14 55 13 94 94 NNE 16 26 29.80 1009 1 2 0.00 0.00
1:59 pm 13:59 Mostly Cloudy with Fog 58 14.4 55 12.8 90 90 NNE 13 20 29.80 1009 1 2 0.00 0.00
2:06 pm 14:06 Cloudy with Fog 58 14.4 55 12.8 90 90 NNE 12 19 29.80 1009 1 2 0.00 0.00
2:20 pm 14:20 Cloudy with Thunderstorms 58 14.4 55 12.8 90 90 NNE 8 13 29.80 1009 1 2 0.00 0.00
2:41 pm 14:41 Cloudy with Thunderstorms 58 14.4 55 12.8 90 90 N 6 9 29.80 1009 1 2 0.02 0.51
2:59 pm 14:59 Cloudy with Thunderstorms 58 14.4 56 13.3 93 93 NE 7 11 29.79 1009 3 4 0.05 1.27
3:41 pm 15:41 Mostly Cloudy with Thunderstorms 60 15.6 58 14.4 93 93 NNW 9 15 29.78 1008 5 8 0.02 0.51
3:48 pm 15:48 Mostly Cloudy with Mist and Fog 60 15.6 58 14.4 93 93 NNW 12 19 29.79 1009 5 8 0.02 0.51
3:59 pm 15:59 Mostly Cloudy 61 16.1 58 14.4 90 90 NNW 9 15 29.80 1009 7 11 0.03 0.76
4:18 pm 16:18 Cloudy with Light Rain 60 15.6 58 14.4 93 93 W 10 17 29.81 1009 4 6 0.00 0.00
4:59 pm 16:59 Cloudy 61 16.1 58 14.4 90 90 WNW 13 20 29.81 1010 10 16 0.00 0.00
5:55 pm 17:55 Cloudy with Mist and Fog 59 15 55 13 88 88 W 17 28 29.84 1010 2 3 0.00 0.00
5:59 pm 17:59 Cloudy with Mist and Fog 59 15 56 13.3 90 90 W 17 28 29.85 1011 2 3 0.00 0.00
6:21 pm 18:21 Cloudy 59 15 56 13.3 90 90 WNW 13 20 29.86 1011 2 3 0.00 0.00
6:33 pm 18:33 Cloudy 59 15 55 12.8 87 87 W 12 19 29.87 1012 10 16 0.00 0.00
6:59 pm 18:59 Cloudy with Mist and Fog 59 15 55 12.8 87 87 W 14 22 29.88 1012 5 8 0.00 0.00
7:35 pm 19:35 Cloudy with Mist and Fog 58 14.4 55 12.8 90 90 W 16 26 29.91 1013 3 4 0.00 0.00
7:44 pm 19:44 Cloudy with Mist and Fog 58 14.4 55 12.8 90 90 W 15 24 29.91 1013 4 6 0.00 0.00
7:59 pm 19:59 Cloudy with Mist and Fog 58 14.4 55 12.8 90 90 WNW 12 19 29.92 1013 6 10 0.00 0.00
8:44 pm 20:44 Cloudy 59 15 56 13.3 90 90 W 13 20 29.94 1014 10 16 0.00 0.00
8:59 pm 20:59 Cloudy 59 15 56 13.3 90 90 W 13 20 29.95 1014 10 16 0.00 0.00
9:59 pm 21:59 Cloudy 59 15 55 12.8 87 87 NW 13 20 29.98 1015 10 16 0.00 0.00
10:59 pm 22:59 Cloudy 58 14.4 55 12.8 90 90 W 7 11 29.99 1016 8 13 0.00 0.00
11:59 pm 23:59 Cloudy 58 14.4 54 12.2 87 87 W 5 7 29.99 1016 7 11 0.00 0.00

Powered by AerisWeather